{"data":{"norad_id":69431,"intl_designator":"2026-126M","name":"STARLINK-37555","alt_names":[],"object_type":"PAYLOAD","status":"ACTIVE","operator":null,"country":"US","launch_date":"2026-06-07","launch_site_code":"AFWTR","launch_vehicle":null,"mission":null,"orbit_class":"UNKNOWN","rcs_meters":null,"size_class":null,"mass_kg":null,"dimensions":null,"purposes":["comms"],"wikipedia_slug":null,"has_3d_model":false,"image_url":null,"decayed_at":null,"tle_current":{"epoch":"2026-09-19T21:32:30.086016Z","epoch_age_seconds":77545,"freshness":"FRESH","line1":"1 69431U 26126M   26262.89757044  .00019966  00000+0  61882-3 0  9990","line2":"2 69431  97.2848 124.1639 0002342  89.5329 270.6182 15.33459846 17480","mean_motion":15.33459846,"eccentricity":0.0002342,"inclination_deg":97.2848,"raan_deg":124.1639,"arg_perigee_deg":89.5329,"mean_anomaly_deg":270.6182,"bstar":0.00061882,"rev_number":1748,"period_min":93.905295515641,"perigee_km":463.89622403151,"apogee_km":467.10178313559,"semimajor_km":6843.6360035835,"source":"CELESTRAK","updated_at":"2026-09-20T09:00:44.196412Z"}}}